[[{"header":{"parameterUnit":"m.s-1","parameterCategory":2,"la1":30.2991,"la2":30.254,"lo1":-89.0895,"lo2":-89.0444,"dy":0.0017,"dx":0.0017,"nx":28,"ny":28,"refTime":"2024-03-09T09:00:00:Z","depth":"0","parameterNumber":2,"parameterNumberName":"U-component_of_CURRENTS"},"data":[0,0,0,0,0,0,0,0,0,0,0,0,0,0,0,0,0,0,0,0,0,0,0,0,0,0,0,0,0,0,0,0,0,0,0,0,0,0,0,0,0,0,0,0,0,0,0,0,0,0,0,0,0,0,0,0,0,0,-0.2047,-0.2048,0,-0.2111,-0.2111,-0.2112,-0.2109,-0.2109,-0.2108,-0.2108,-0.2075,-0.2075,-0.2074,0,0,0,0,0,0,0,0,0,0,0,0,0,-0.1996,-0.1996,-0.2046,-0.2048,-0.2049,-0.2111,-0.2111,-0.2112,-0.2109,-0.2109,-0.2108,-0.2108,-0.2075,-0.2075,-0.2074,0,0,0,0,0,0,0,0,0,0,0,0,0,-0.2029,-0.1996,-0.2046,-0.2059,-0.2061,-0.2111,-0.2111,-0.2112,-0.2109,-0.2109,-0.2108,-0.2107,-0.2076,-0.2075,-0.2074,-0.2083,0,0,-0.2072,-0.2072,0,0,0,0,0,0,0,0,-0.2027,-0.2031,-0.2056,-0.2058,-0.2061,-0.2106,-0.2082,-0.2099,-0.211,-0.2086,-0.2108,-0.2107,-0.208,-0.2079,-0.2087,-0.2081,-0.208,-0.2072,-0.2071,-0.2071,-0.2071,0,0,0,0,0,0,0,-0.2025,-0.2028,-0.2067,-0.2058,-0.2061,-0.2088,-0.209,-0.2085,-0.208,-0.2088,-0.2089,-0.2105,-0.208,-0.2088,-0.2086,-0.2079,-0.2072,-0.2071,-0.2071,-0.2071,-0.2086,-0.2087,0,0,0,0,0,0,-0.2024,-0.2026,-0.2065,-0.2069,-0.2048,-0.2089,-0.2092,-0.2088,-0.2082,-0.2083,-0.2105,-0.2104,-0.2089,-0.2087,-0.2084,-0.2097,-0.2071,-0.207,-0.207,-0.2085,-0.2086,-0.2087,0,0,0,0,0,0,-0.2023,-0.2026,-0.2062,-0.2054,-0.2061,-0.2091,-0.2086,-0.209,-0.2098,-0.2098,-0.2095,-0.211,-0.2088,-0.2085,-0.2077,-0.2095,-0.207,-0.207,-0.2084,-0.2085,-0.2087,-0.212,0,0,0,0,0,0,-0.202,-0.2025,-0.2022,-0.2054,-0.2062,-0.2088,-0.2088,-0.2092,-0.2111,-0.211,-0.2101,-0.2098,-0.2088,-0.2078,-0.2077,-0.2094,-0.2069,-0.2083,-0.2085,-0.2086,-0.2118,-0.2122,-0.2126,0,0,0,0,0,-0.2018,-0.2026,-0.2021,-0.2027,-0.2056,-0.2089,-0.2095,-0.2111,-0.2112,-0.2115,-0.2108,-0.2098,-0.2088,-0.2078,-0.2076,-0.2093,-0.2082,-0.2084,-0.2086,-0.2116,-0.2121,-0.2126,0,0,0,0,0,0,-0.2004,-0.2028,-0.2023,-0.2036,-0.2056,-0.209,-0.2103,-0.2114,-0.2114,-0.2111,-0.2101,-0.2097,-0.2105,-0.2092,-0.2082,-0.2104,-0.2087,-0.2088,-0.211,-0.2115,-0.2119,-0.2115,-0.2068,0,0,0,0,0,-0.1999,-0.2008,-0.2032,-0.2042,-0.2049,-0.2073,-0.209,-0.2102,-0.2112,-0.2113,-0.2106,-0.2104,-0.2113,-0.2106,-0.2109,-0.211,-0.2097,-0.2123,-0.2127,-0.213,-0.2126,-0.2134,-0.2138,-0.2093,-0.2093,-0.2093,0,0,-0.1999,-0.2014,-0.2018,-0.204,-0.2053,-0.2073,-0.2079,-0.2106,-0.2123,-0.2108,-0.2115,-0.2119,-0.2119,-0.2129,-0.2131,-0.2116,-0.2135,-0.2132,-0.2135,-0.213,-0.2136,-0.214,-0.2144,-0.2094,-0.2094,-0.2094,0,0,-0.2005,-0.2009,-0.2013,-0.2032,-0.206,-0.2079,-0.2086,-0.2113,-0.2119,-0.2131,-0.2135,-0.2146,-0.2143,-0.2154,-0.2159,-0.2186,-0.2164,-0.2189,-0.2195,-0.2203,-0.2207,-0.2209,-0.2191,-0.2192,-0.2181,-0.2182,-0.2182,0,-0.1999,-0.2007,-0.2023,-0.2036,-0.2055,-0.208,-0.2094,-0.2114,-0.2135,-0.2138,-0.2133,-0.216,-0.216,-0.2187,-0.2197,-0.2197,-0.2183,-0.2177,-0.2208,-0.2211,-0.2213,-0.2194,-0.2194,-0.2183,-0.2183,-0.2183,-0.2183,0,-0.2005,-0.2017,-0.2026,-0.2043,-0.2065,-0.2087,-0.2116,-0.2128,-0.2141,-0.2158,-0.2182,-0.2192,-0.2199,-0.2216,-0.2212,-0.2238,-0.2217,-0.222,-0.2194,-0.2219,-0.2197,-0.2197,-0.2186,-0.2185,-0.2185,-0.2184,0,0,-0.197,-0.2018,-0.2016,-0.2029,-0.2072,-0.209,-0.2117,-0.2143,-0.2163,-0.2181,-0.2199,-0.223,-0.223,-0.2237,-0.2246,-0.2257,-0.2265,-0.2239,-0.2239,-0.2217,-0.2257,-0.2182,-0.2175,-0.2269,-0.227,-0.227,-0.2231,0,-0.1961,-0.1987,-0.2014,-0.2043,-0.206,-0.2093,-0.2119,-0.215,-0.2175,-0.2198,-0.2221,-0.2246,-0.2241,-0.2251,-0.226,-0.2274,-0.2268,-0.2273,-0.2238,-0.2237,-0.2165,-0.2174,-0.2065,-0.2016,-0.2231,-0.2231,-0.2231,0,-0.194,-0.197,-0.1993,-0.2045,-0.2051,-0.2073,-0.2114,-0.2142,-0.2185,-0.2201,-0.2224,-0.2246,-0.227,-0.2266,-0.2276,-0.2275,-0.2258,-0.2265,-0.2264,-0.2181,-0.2162,-0.2028,-0.2008,-0.195,-0.2231,-0.2231,-0.2231,0,-0.1897,-0.1945,-0.1965,-0.1984,-0.205,-0.2058,-0.2083,-0.2131,-0.2148,-0.22,-0.2216,-0.2251,-0.226,-0.2266,-0.2261,-0.2268,-0.2265,-0.2275,-0.2188,-0.2182,-0.2075,-0.2059,-0.1991,-0.2269,-0.2269,-0.2269,-0.2269,0,-0.1874,-0.1888,-0.1946,-0.1961,-0.1974,-0.2031,-0.2046,-0.2078,-0.2129,-0.2153,-0.2204,-0.2227,-0.226,-0.2264,-0.226,-0.2211,-0.2252,-0.2182,-0.2169,-0.2082,-0.2067,-0.2,-0.2011,-0.2268,-0.2268,-0.2268,-0.2269,0,-0.1811,-0.1863,-0.1877,-0.1936,-0.1952,-0.195,-0.1993,-0.2014,-0.2075,-0.2108,-0.2122,-0.2191,-0.2195,-0.221,-0.2219,-0.2189,-0.2114,-0.2141,-0.2022,-0.1995,-0.1855,-0.1872,-0.1817,-0.1755,-0.2039,-0.2037,-0.2035,0,-0.178,-0.1785,-0.1822,-0.1827,-0.1847,-0.1865,-0.1882,-0.1956,-0.1986,-0.2083,-0.2095,-0.2127,-0.2129,-0.2104,-0.2072,-0.2028,-0.2016,-0.1897,-0.1894,-0.182,-0.1831,-0.1861,-0.1816,-0.1764,-0.176,-0.1757,-0.1755,0,-0.1704,-0.1708,-0.1717,-0.1718,-0.1734,-0.1751,-0.1788,-0.1807,-0.1911,-0.1955,-0.201,-0.2028,-0.2014,-0.1935,-0.1878,-0.184,-0.1819,-0.183,-0.179,-0.1634,-0.1626,-0.1568,-0.181,-0.1727,-0.173,-0.1732,-0.1733,-0.1734,-0.1617,-0.159,-0.1593,-0.1587,-0.1607,-0.1624,-0.161,-0.169,-0.1725,-0.1799,-0.1877,-0.1897,-0.1839,-0.1746,-0.1678,-0.1516,-0.1618,-0.1466,-0.1499,-0.1541,-0.146,-0.1625,-0.1509,-0.151,-0.1511,-0.1513,-0.1514,0,-0.1504,-0.149,-0.1469,-0.1463,-0.1443,-0.1492,-0.1537,-0.1531,-0.1558,-0.1671,-0.1707,-0.1709,-0.1568,-0.1499,-0.1343,-0.123,-0.1194,-0.1174,-0.119,-0.1164,-0.1322,-0.1285,-0.1068,-0.1068,-0.1068,-0.1068,-0.1068,-0.1068,-0.1441,-0.1389,-0.1379,-0.1306,-0.1301,-0.1252,-0.1257,-0.1287,-0.1349,-0.1413,-0.1488,-0.157,-0.1516,-0.1397,-0.1158,-0.1049,-0.0994,-0.0954,-0.0987,-0.1093,-0.1123,-0.1151,-0.1116,-0.0868,-0.0868,-0.0765,-0.0764,-0.0764]},{"header":{"parameterUnit":"m.s-1","parameterCategory":2,"la1":30.2991,"la2":30.254,"lo1":-89.0895,"lo2":-89.0444,"dy":0.0017,"dx":0.0017,"nx":28,"ny":28,"refTime":"2024-03-09T09:00:00:Z","depth":"0","parameterNumber":3,"parameterNumberName":"V-component_of_CURRENTS"},"data":[0,0,0,0,0,0,0,0,0,0,0,0,0,0,0,0,0,0,0,0,0,0,0,0,0,0,0,0,0,0,0,0,0,0,0,0,0,0,0,0,0,0,0,0,0,0,0,0,0,0,0,0,0,0,0,0,0,0,-0.0466,-0.0466,0,-0.0431,-0.043,-0.043,-0.0421,-0.0422,-0.0422,-0.0423,-0.0332,-0.0329,-0.0326,0,0,0,0,0,0,0,0,0,0,0,0,0,-0.0491,-0.0491,-0.0466,-0.0466,-0.0466,-0.0431,-0.043,-0.0429,-0.0421,-0.0422,-0.0422,-0.0423,-0.0333,-0.0329,-0.0326,0,0,0,0,0,0,0,0,0,0,0,0,0,-0.0469,-0.0491,-0.0466,-0.0459,-0.0458,-0.0431,-0.043,-0.0429,-0.0421,-0.0422,-0.0422,-0.0423,-0.0334,-0.033,-0.0325,-0.0288,0,0,-0.0313,-0.0311,0,0,0,0,0,0,0,0,-0.047,-0.0468,-0.046,-0.0459,-0.0458,-0.0433,-0.0406,-0.038,-0.0421,-0.0433,-0.0423,-0.0423,-0.0361,-0.0355,-0.0345,-0.0283,-0.028,-0.0312,-0.031,-0.0308,-0.0307,0,0,0,0,0,0,0,-0.0472,-0.0469,-0.0451,-0.046,-0.0459,-0.0445,-0.0442,-0.0401,-0.0392,-0.0432,-0.0432,-0.043,-0.036,-0.0349,-0.0343,-0.0278,-0.0312,-0.0309,-0.0306,-0.0305,-0.0219,-0.0219,0,0,0,0,0,0,-0.0481,-0.0471,-0.0452,-0.045,-0.0468,-0.0444,-0.0441,-0.0439,-0.0394,-0.0388,-0.043,-0.043,-0.0356,-0.0348,-0.0339,-0.0319,-0.0308,-0.0304,-0.0302,-0.0218,-0.0219,-0.0219,0,0,0,0,0,0,-0.0481,-0.0479,-0.0453,-0.0461,-0.0457,-0.0443,-0.044,-0.0438,-0.043,-0.0393,-0.0386,-0.0426,-0.0356,-0.0345,-0.0312,-0.0314,-0.0302,-0.0298,-0.0218,-0.0219,-0.0219,-0.0261,0,0,0,0,0,0,-0.0482,-0.048,-0.0482,-0.0461,-0.0457,-0.0443,-0.044,-0.0437,-0.0429,-0.0429,-0.0386,-0.0379,-0.0356,-0.0318,-0.0308,-0.0308,-0.0295,-0.0218,-0.0218,-0.0219,-0.0259,-0.0262,-0.0265,0,0,0,0,0,-0.0483,-0.049,-0.0482,-0.048,-0.046,-0.0443,-0.0439,-0.0431,-0.0428,-0.0425,-0.0401,-0.038,-0.0314,-0.0315,-0.0302,-0.0302,-0.0218,-0.0218,-0.0219,-0.0258,-0.0262,-0.0265,0,0,0,0,0,0,-0.0499,-0.0489,-0.0481,-0.0483,-0.0465,-0.0443,-0.0442,-0.0431,-0.0408,-0.0413,-0.0373,-0.0364,-0.0338,-0.0312,-0.0314,-0.028,-0.0265,-0.0264,-0.0299,-0.0303,-0.0306,-0.0316,-0.0292,0,0,0,0,0,-0.0503,-0.0509,-0.0487,-0.0488,-0.0481,-0.0459,-0.0452,-0.0447,-0.0425,-0.0417,-0.0381,-0.0352,-0.0328,-0.0311,-0.0282,-0.0253,-0.0227,-0.0249,-0.0252,-0.0255,-0.0256,-0.0221,-0.0221,-0.0221,-0.0221,-0.0221,0,0,-0.051,-0.0506,-0.0508,-0.0493,-0.0479,-0.0475,-0.0456,-0.0452,-0.0447,-0.0408,-0.0384,-0.0356,-0.0323,-0.0302,-0.0288,-0.0281,-0.0242,-0.0255,-0.0258,-0.0257,-0.0221,-0.0221,-0.0221,-0.0221,-0.0221,-0.0221,0,0,-0.0527,-0.052,-0.0528,-0.052,-0.0508,-0.0493,-0.0492,-0.0465,-0.0452,-0.0425,-0.0404,-0.038,-0.0327,-0.0312,-0.0298,-0.0297,-0.0259,-0.0289,-0.0309,-0.0276,-0.0275,-0.0275,-0.0244,-0.024,-0.0291,-0.0291,-0.0291,0,-0.0531,-0.0544,-0.0526,-0.0532,-0.0536,-0.0502,-0.0512,-0.0488,-0.0452,-0.0441,-0.0425,-0.0365,-0.0335,-0.0319,-0.0324,-0.0304,-0.0278,-0.0298,-0.028,-0.0279,-0.0277,-0.0246,-0.0241,-0.0293,-0.0292,-0.0292,-0.0292,0,-0.0559,-0.0566,-0.0571,-0.057,-0.0565,-0.0572,-0.0543,-0.0526,-0.0502,-0.0475,-0.0443,-0.0399,-0.0369,-0.0356,-0.0337,-0.0319,-0.0301,-0.0288,-0.0271,-0.028,-0.0246,-0.024,-0.0296,-0.0295,-0.0294,-0.0294,0,0,-0.0567,-0.0588,-0.0588,-0.0604,-0.0595,-0.0596,-0.0585,-0.0565,-0.0564,-0.0508,-0.0501,-0.0448,-0.042,-0.0402,-0.0373,-0.0341,-0.0309,-0.0313,-0.031,-0.0284,-0.0233,-0.0218,-0.021,-0.029,-0.0289,-0.0289,-0.0214,0,-0.059,-0.063,-0.0625,-0.0652,-0.0672,-0.065,-0.064,-0.062,-0.0592,-0.0569,-0.0514,-0.0486,-0.0438,-0.0429,-0.0389,-0.0332,-0.0296,-0.0331,-0.0227,-0.0224,-0.0211,-0.0204,-0.0212,-0.0146,-0.0208,-0.0207,-0.0207,0,-0.0613,-0.0645,-0.0689,-0.0712,-0.0715,-0.0718,-0.0722,-0.071,-0.0668,-0.0643,-0.0603,-0.0555,-0.0499,-0.0462,-0.0351,-0.0373,-0.0308,-0.0256,-0.0251,-0.0218,-0.0198,-0.0146,-0.0133,-0.0024,-0.0198,-0.0198,-0.0199,0,-0.0648,-0.0681,-0.0726,-0.0739,-0.0756,-0.0763,-0.0759,-0.0734,-0.0727,-0.0689,-0.0682,-0.0602,-0.0567,-0.0469,-0.0349,-0.0349,-0.0227,-0.0216,-0.0138,-0.0136,-0.0113,-0.0111,0.0016,-0.0139,-0.0139,-0.0139,-0.014,0,-0.0679,-0.071,-0.0748,-0.0775,-0.0816,-0.0809,-0.0829,-0.0811,-0.0792,-0.0795,-0.0721,-0.0704,-0.0565,-0.0477,-0.0367,-0.023,-0.0234,-0.0137,-0.0114,-0.0129,-0.0128,-0.0009,0.0066,-0.0137,-0.0137,-0.0138,-0.0138,0,-0.0701,-0.0729,-0.0781,-0.082,-0.0834,-0.0859,-0.087,-0.0884,-0.0856,-0.0866,-0.0852,-0.0768,-0.0653,-0.0509,-0.0353,-0.0257,-0.0042,-0.0079,-0.0106,-0.0087,0.0075,0.0147,0.0342,0.0436,0.0012,0.0013,0.0013,0,-0.0726,-0.0758,-0.0815,-0.0851,-0.0868,-0.0904,-0.093,-0.0915,-0.0934,-0.0904,-0.0915,-0.0811,-0.074,-0.0498,-0.0313,-0.0118,0.0006,-0.0007,-0.0011,0.009,0.0188,0.0256,0.0327,0.0005,0.0006,0.0007,0.0007,0,-0.0771,-0.078,-0.0816,-0.0887,-0.0931,-0.0983,-0.1017,-0.1041,-0.1034,-0.1036,-0.1012,-0.0949,-0.0722,-0.0518,-0.026,-0.0131,0.0099,0.0008,0.0124,0.0207,0.028,0.0378,-0.0049,0.0011,0.0011,0.001,0.001,0.001,-0.0792,-0.0818,-0.0859,-0.0919,-0.0983,-0.1058,-0.1101,-0.1141,-0.1175,-0.1181,-0.1093,-0.1001,-0.0684,-0.0329,-0.0178,0.012,0.0159,0.0206,0.0289,0.0352,0.0438,0.0018,0.0095,0.0095,0.0095,0.0096,0.0096,0,-0.0807,-0.0836,-0.0897,-0.0977,-0.1056,-0.1074,-0.1161,-0.1209,-0.1271,-0.1229,-0.1181,-0.0875,-0.0557,-0.0234,0.0191,0.0375,0.0457,0.0483,0.0577,0.0639,0.0265,0.0257,0.0358,0.0358,0.0358,0.0358,0.0358,0.0357,-0.0815,-0.0858,-0.0886,-0.102,-0.1087,-0.1199,-0.1252,-0.1322,-0.1318,-0.1248,-0.1098,-0.0954,-0.0444,0.0251,0.0646,0.0684,0.0883,0.0875,0.101,0.0727,0.0707,0.0688,0.0696,0.0888,0.0889,0.1348,0.1353,0.1356]}],[{"header":{"parameterUnit":"m.s-1","parameterCategory":2,"la1":30.2991,"la2":30.254,"lo1":-89.0895,"lo2":-89.0444,"dy":0.0017,"dx":0.0017,"nx":28,"ny":28,"refTime":"2024-03-09T09:00:00:Z","depth":"2","parameterNumber":2,"parameterNumberName":"U-component_of_CURRENTS"},"data":[0,0,0,0,0,0,0,0,0,0,0,0,0,0,0,0,0,0,0,0,0,0,0,0,0,0,0,0,0,0,0,0,0,0,0,0,0,0,0,0,0,0,0,0,0,0,0,0,0,0,0,0,0,0,0,0,0,0,-0.2056,-0.2057,0,-0.2129,-0.213,-0.213,-0.2133,-0.2133,-0.2133,-0.2132,-0.2099,-0.2098,-0.2098,0,0,0,0,0,0,0,0,0,0,0,0,0,-0.2001,-0.2001,-0.2056,-0.2057,-0.2058,-0.2129,-0.213,-0.213,-0.2133,-0.2133,-0.2132,-0.2132,-0.2099,-0.2098,-0.2098,0,0,0,0,0,0,0,0,0,0,0,0,0,-0.2039,-0.2001,-0.2055,-0.2072,-0.2075,-0.2129,-0.213,-0.213,-0.2133,-0.2133,-0.2132,-0.2132,-0.2099,-0.2098,-0.2098,-0.2104,0,0,-0.2095,-0.2095,0,0,0,0,0,0,0,0,-0.2037,-0.204,-0.2068,-0.2071,-0.2074,-0.2126,-0.2099,-0.2118,-0.2134,-0.2106,-0.2132,-0.2131,-0.2102,-0.2101,-0.211,-0.2103,-0.2101,-0.2095,-0.2095,-0.2094,-0.2094,0,0,0,0,0,0,0,-0.2034,-0.2038,-0.2079,-0.207,-0.2074,-0.2105,-0.2109,-0.2103,-0.21,-0.2108,-0.211,-0.2127,-0.2102,-0.2111,-0.2109,-0.2101,-0.2095,-0.2094,-0.2094,-0.2094,-0.2108,-0.2108,0,0,0,0,0,0,-0.2032,-0.2035,-0.2077,-0.2082,-0.206,-0.2107,-0.211,-0.2106,-0.2103,-0.2104,-0.2127,-0.2127,-0.2112,-0.211,-0.2108,-0.212,-0.2094,-0.2093,-0.2093,-0.2107,-0.2108,-0.2109,0,0,0,0,0,0,-0.203,-0.2034,-0.2074,-0.2066,-0.2074,-0.2108,-0.2103,-0.2108,-0.2117,-0.2119,-0.2117,-0.2133,-0.2112,-0.2109,-0.2099,-0.2118,-0.2093,-0.2092,-0.2106,-0.2107,-0.2108,-0.214,0,0,0,0,0,0,-0.2028,-0.2032,-0.2031,-0.2065,-0.2074,-0.2102,-0.2105,-0.211,-0.2131,-0.2131,-0.2123,-0.212,-0.2111,-0.2101,-0.2099,-0.2116,-0.2092,-0.2105,-0.2106,-0.2108,-0.2138,-0.2143,-0.2146,0,0,0,0,0,-0.2025,-0.2033,-0.2029,-0.2036,-0.2069,-0.2103,-0.2109,-0.213,-0.2132,-0.2135,-0.213,-0.212,-0.211,-0.21,-0.2098,-0.2116,-0.2104,-0.2106,-0.2108,-0.2136,-0.2142,-0.2146,0,0,0,0,0,0,-0.201,-0.2036,-0.2032,-0.2046,-0.2068,-0.2105,-0.2119,-0.2132,-0.2134,-0.2131,-0.2123,-0.2119,-0.2126,-0.2113,-0.2103,-0.2126,-0.2109,-0.211,-0.2132,-0.2137,-0.2141,-0.2136,-0.2091,0,0,0,0,0,-0.2006,-0.2015,-0.204,-0.2051,-0.2058,-0.2085,-0.2104,-0.2118,-0.213,-0.2131,-0.2125,-0.2124,-0.2134,-0.2127,-0.213,-0.213,-0.2118,-0.2144,-0.2148,-0.2151,-0.2147,-0.2154,-0.2158,-0.2115,-0.2115,-0.2115,0,0,-0.2005,-0.2022,-0.2026,-0.2049,-0.2064,-0.2084,-0.2093,-0.2121,-0.214,-0.2125,-0.2133,-0.2138,-0.214,-0.215,-0.2152,-0.2137,-0.2155,-0.2154,-0.2156,-0.215,-0.2157,-0.2161,-0.2164,-0.2116,-0.2116,-0.2116,0,0,-0.2011,-0.2016,-0.2021,-0.204,-0.2069,-0.2091,-0.2098,-0.2126,-0.2134,-0.2146,-0.2152,-0.2164,-0.2161,-0.2174,-0.218,-0.2206,-0.2184,-0.2209,-0.2215,-0.2223,-0.2226,-0.2229,-0.2209,-0.221,-0.2202,-0.2202,-0.2202,0,-0.2006,-0.2014,-0.203,-0.2043,-0.2064,-0.2091,-0.2105,-0.2126,-0.215,-0.2153,-0.2148,-0.2177,-0.2178,-0.2206,-0.2217,-0.2217,-0.2202,-0.2196,-0.2228,-0.223,-0.2233,-0.2211,-0.2212,-0.2204,-0.2204,-0.2204,-0.2204,0,-0.2012,-0.2024,-0.2032,-0.2051,-0.2075,-0.2097,-0.2127,-0.2139,-0.2153,-0.2172,-0.2196,-0.2207,-0.2215,-0.2233,-0.223,-0.2257,-0.2235,-0.2239,-0.2213,-0.2239,-0.2215,-0.2214,-0.2207,-0.2206,-0.2205,-0.2205,0,0,-0.1976,-0.2025,-0.2022,-0.2036,-0.2081,-0.21,-0.2128,-0.2155,-0.2175,-0.2193,-0.2212,-0.2245,-0.2245,-0.2252,-0.2262,-0.2274,-0.2281,-0.2257,-0.2257,-0.2232,-0.2272,-0.2196,-0.2188,-0.2287,-0.2288,-0.2288,-0.2244,0,-0.1968,-0.1994,-0.2022,-0.2052,-0.2069,-0.2103,-0.213,-0.2162,-0.2187,-0.221,-0.2233,-0.2259,-0.2256,-0.2265,-0.2275,-0.229,-0.2283,-0.2291,-0.2254,-0.2252,-0.2179,-0.2187,-0.1998,-0.1938,-0.2244,-0.2244,-0.2244,0,-0.1946,-0.1976,-0.2001,-0.2054,-0.206,-0.2083,-0.2124,-0.2153,-0.2196,-0.2211,-0.2234,-0.2257,-0.2281,-0.2279,-0.2288,-0.2289,-0.2272,-0.2279,-0.2278,-0.2194,-0.2177,-0.1964,-0.1926,-0.2243,-0.2244,-0.2244,-0.2244,0,-0.1904,-0.1952,-0.1974,-0.1994,-0.2061,-0.2068,-0.2094,-0.2142,-0.2159,-0.2209,-0.2224,-0.226,-0.2269,-0.2275,-0.2272,-0.2279,-0.2274,-0.2287,-0.2199,-0.2192,-0.2016,-0.1993,-0.228,-0.228,-0.228,-0.228,-0.228,0,-0.1881,-0.1896,-0.1955,-0.197,-0.1984,-0.2042,-0.2057,-0.2087,-0.2137,-0.216,-0.2212,-0.2233,-0.2269,-0.2272,-0.2268,-0.2218,-0.226,-0.2191,-0.2178,-0.2021,-0.2,-0.2258,-0.2256,-0.2278,-0.2279,-0.2279,-0.2279,0,-0.1818,-0.1871,-0.1886,-0.1946,-0.1963,-0.1961,-0.2004,-0.2023,-0.2083,-0.2114,-0.2128,-0.2196,-0.22,-0.2215,-0.2225,-0.2195,-0.2178,-0.2145,-0.1943,-0.1907,-0.209,-0.209,-0.2047,-0.2044,-0.2041,-0.2039,-0.2037,0,-0.1788,-0.1794,-0.1831,-0.1836,-0.1856,-0.1875,-0.1893,-0.1966,-0.1994,-0.2089,-0.2099,-0.213,-0.2128,-0.2101,-0.2048,-0.1997,-0.209,-0.1811,-0.1802,-0.2075,-0.2067,-0.2071,-0.2075,-0.1574,-0.1569,-0.1565,-0.1561,0,-0.1714,-0.1718,-0.1726,-0.1727,-0.1743,-0.1761,-0.1797,-0.1815,-0.1918,-0.196,-0.201,-0.2023,-0.1986,-0.1851,-0.1785,-0.1743,-0.181,-0.172,-0.2049,-0.1673,-0.1629,-0.1622,-0.1641,-0.1521,-0.1525,-0.1528,-0.153,-0.1532,-0.1628,-0.1601,-0.1603,-0.1596,-0.1617,-0.1633,-0.1617,-0.1688,-0.172,-0.1761,-0.1849,-0.1807,-0.1775,-0.1578,-0.1483,-0.1405,-0.1553,-0.1491,-0.1505,-0.1523,-0.1486,-0.1442,-0.129,-0.1292,-0.1295,-0.1297,-0.1298,0,-0.1514,-0.1501,-0.148,-0.1473,-0.145,-0.1501,-0.1544,-0.152,-0.1532,-0.1586,-0.1593,-0.141,-0.1298,-0.1274,-0.108,-0.1048,-0.1038,-0.1009,-0.0992,-0.1031,-0.1066,-0.1007,-0.0683,-0.0681,-0.068,-0.0678,0,0,-0.1451,-0.1399,-0.1389,-0.1313,-0.1308,-0.1254,-0.1257,-0.125,-0.1264,-0.1223,-0.1197,-0.1263,-0.1267,-0.0996,-0.0908,-0.077,-0.0903,-0.0723,-0.1215,-0.1237,-0.1271,-0.1335,-0.1287,0,0,0,0,0]},{"header":{"parameterUnit":"m.s-1","parameterCategory":2,"la1":30.2991,"la2":30.254,"lo1":-89.0895,"lo2":-89.0444,"dy":0.0017,"dx":0.0017,"nx":28,"ny":28,"refTime":"2024-03-09T09:00:00:Z","depth":"2","parameterNumber":3,"parameterNumberName":"V-component_of_CURRENTS"},"data":[0,0,0,0,0,0,0,0,0,0,0,0,0,0,0,0,0,0,0,0,0,0,0,0,0,0,0,0,0,0,0,0,0,0,0,0,0,0,0,0,0,0,0,0,0,0,0,0,0,0,0,0,0,0,0,0,0,0,-0.0367,-0.0367,0,-0.0342,-0.0342,-0.0341,-0.0341,-0.0342,-0.0342,-0.0343,-0.0255,-0.0252,-0.0249,0,0,0,0,0,0,0,0,0,0,0,0,0,-0.0386,-0.0386,-0.0367,-0.0367,-0.0367,-0.0342,-0.0342,-0.0341,-0.0341,-0.0342,-0.0343,-0.0343,-0.0256,-0.0252,-0.0249,0,0,0,0,0,0,0,0,0,0,0,0,0,-0.0368,-0.0386,-0.0367,-0.0366,-0.0366,-0.0342,-0.0342,-0.0341,-0.0341,-0.0342,-0.0343,-0.0344,-0.0257,-0.0252,-0.0248,-0.0203,0,0,-0.0235,-0.0233,0,0,0,0,0,0,0,0,-0.0369,-0.0367,-0.0366,-0.0366,-0.0366,-0.0348,-0.0316,-0.0293,-0.0341,-0.0347,-0.0343,-0.0344,-0.0281,-0.0275,-0.0265,-0.0199,-0.0195,-0.0234,-0.0232,-0.023,-0.0229,0,0,0,0,0,0,0,-0.0371,-0.0368,-0.0354,-0.0366,-0.0366,-0.0358,-0.0356,-0.0312,-0.0306,-0.0347,-0.0348,-0.0349,-0.028,-0.0269,-0.0263,-0.0194,-0.0234,-0.0231,-0.0228,-0.0226,-0.0139,-0.0139,0,0,0,0,0,0,-0.038,-0.0369,-0.0355,-0.0354,-0.0373,-0.0357,-0.0355,-0.0351,-0.0308,-0.0304,-0.0348,-0.0349,-0.0276,-0.0268,-0.026,-0.0242,-0.023,-0.0226,-0.0223,-0.0138,-0.0139,-0.0139,0,0,0,0,0,0,-0.038,-0.0379,-0.0356,-0.0364,-0.0361,-0.0356,-0.0351,-0.035,-0.0344,-0.031,-0.0305,-0.0346,-0.0277,-0.0266,-0.0233,-0.0237,-0.0224,-0.022,-0.0138,-0.0138,-0.0139,-0.0182,0,0,0,0,0,0,-0.0381,-0.0379,-0.0382,-0.0364,-0.0361,-0.0349,-0.035,-0.0349,-0.0345,-0.0346,-0.0306,-0.0298,-0.0276,-0.024,-0.0229,-0.0231,-0.0216,-0.0138,-0.0138,-0.0139,-0.018,-0.0184,-0.0187,0,0,0,0,0,-0.0382,-0.0388,-0.0382,-0.038,-0.0364,-0.035,-0.0347,-0.0344,-0.0344,-0.0342,-0.032,-0.03,-0.0236,-0.0236,-0.0223,-0.0224,-0.0137,-0.0138,-0.0139,-0.0179,-0.0183,-0.0187,0,0,0,0,0,0,-0.0398,-0.0388,-0.0381,-0.0384,-0.037,-0.0351,-0.0353,-0.0344,-0.0324,-0.0331,-0.0292,-0.0283,-0.0259,-0.0233,-0.0234,-0.0203,-0.0187,-0.0185,-0.0222,-0.0226,-0.0229,-0.0238,-0.0213,0,0,0,0,0,-0.0401,-0.0406,-0.0387,-0.0389,-0.0383,-0.0364,-0.036,-0.0359,-0.034,-0.0333,-0.0298,-0.0272,-0.0249,-0.0232,-0.0204,-0.0174,-0.0147,-0.0171,-0.0174,-0.0177,-0.0177,-0.0142,-0.0143,-0.0141,-0.0141,-0.0141,0,0,-0.0408,-0.0405,-0.0407,-0.0393,-0.0382,-0.038,-0.0363,-0.0364,-0.0362,-0.0323,-0.0302,-0.0276,-0.0244,-0.0224,-0.0211,-0.0203,-0.0164,-0.0178,-0.0181,-0.0179,-0.0143,-0.0143,-0.0143,-0.0142,-0.0142,-0.0142,0,0,-0.0426,-0.0419,-0.0426,-0.042,-0.0413,-0.04,-0.04,-0.0376,-0.0366,-0.0341,-0.0323,-0.03,-0.0248,-0.0235,-0.0221,-0.0221,-0.0183,-0.0214,-0.0234,-0.0201,-0.0201,-0.0201,-0.0169,-0.0165,-0.0216,-0.0216,-0.0216,0,-0.0432,-0.0444,-0.0425,-0.0432,-0.0439,-0.041,-0.0422,-0.0399,-0.0368,-0.0358,-0.0344,-0.0285,-0.0257,-0.0241,-0.0249,-0.0229,-0.0203,-0.0222,-0.0206,-0.0205,-0.0203,-0.0171,-0.0166,-0.0218,-0.0218,-0.0218,-0.0218,0,-0.046,-0.0467,-0.0472,-0.0472,-0.0471,-0.048,-0.0455,-0.044,-0.0419,-0.0394,-0.0363,-0.0321,-0.0291,-0.0279,-0.0262,-0.0244,-0.0227,-0.0214,-0.0196,-0.0206,-0.0171,-0.0166,-0.0221,-0.0221,-0.022,-0.0219,0,0,-0.0469,-0.0488,-0.0488,-0.0506,-0.0502,-0.0505,-0.0498,-0.0481,-0.048,-0.0428,-0.0421,-0.0371,-0.0342,-0.0326,-0.0297,-0.0266,-0.0235,-0.0238,-0.0236,-0.0209,-0.016,-0.0146,-0.0138,-0.0217,-0.0217,-0.0216,-0.014,0,-0.0493,-0.0533,-0.0529,-0.056,-0.058,-0.0561,-0.0554,-0.0537,-0.051,-0.0488,-0.0435,-0.0408,-0.0361,-0.0352,-0.0314,-0.0257,-0.0221,-0.0256,-0.0152,-0.0149,-0.0137,-0.0132,-0.009,-0.0019,-0.0134,-0.0133,-0.0133,0,-0.0518,-0.0549,-0.0595,-0.062,-0.0623,-0.063,-0.0636,-0.0627,-0.0585,-0.0561,-0.0521,-0.0475,-0.0421,-0.0385,-0.0274,-0.0298,-0.0233,-0.0181,-0.0177,-0.0144,-0.0125,-0.0026,-0.0003,-0.0123,-0.0123,-0.0124,-0.0125,0,-0.0553,-0.0587,-0.0635,-0.0648,-0.0667,-0.0677,-0.0674,-0.065,-0.0644,-0.0607,-0.06,-0.0521,-0.0488,-0.039,-0.0273,-0.0274,-0.0151,-0.0142,-0.0065,-0.0063,0.0003,0.0009,-0.0064,-0.0064,-0.0064,-0.0065,-0.0065,0,-0.0586,-0.0619,-0.0656,-0.0684,-0.0727,-0.0722,-0.0744,-0.0727,-0.0708,-0.0711,-0.0639,-0.0621,-0.0486,-0.0399,-0.029,-0.0155,-0.0158,-0.0063,-0.0041,-0.0012,-0.0008,-0.0075,-0.0077,-0.0062,-0.0062,-0.0063,-0.0063,0,-0.061,-0.0638,-0.0691,-0.073,-0.0746,-0.0773,-0.0786,-0.0799,-0.0771,-0.0781,-0.0769,-0.0685,-0.0571,-0.0431,-0.0276,-0.0182,-0.0053,-0.0006,0.0019,0.0042,0.0016,0.001,0.0083,0.0084,0.0085,0.0085,0.0086,0,-0.0637,-0.0671,-0.0726,-0.0762,-0.078,-0.0819,-0.0845,-0.0831,-0.0848,-0.0818,-0.0829,-0.0727,-0.0652,-0.0414,-0.0212,-0.0013,-0.003,0.0118,0.012,0.0017,0.0032,0.0025,0.0018,0.0196,0.0197,0.0199,0.02,0,-0.0685,-0.0693,-0.0727,-0.0798,-0.0843,-0.0895,-0.0931,-0.0953,-0.0946,-0.0945,-0.0918,-0.0851,-0.0609,-0.0361,-0.0102,0.0016,0.0089,0.0147,0.0052,0.0139,0.0126,0.0139,0.0129,0.0211,0.0209,0.0209,0.0208,0.0208,-0.0706,-0.0732,-0.077,-0.0831,-0.0895,-0.0968,-0.101,-0.1032,-0.106,-0.1018,-0.0954,-0.0794,-0.0568,-0.0162,0.0021,0.0201,0.0169,0.0236,0.0231,0.0225,0.0212,0.02,0.0296,0.0296,0.0295,0.0295,0.0294,0,-0.0707,-0.0749,-0.081,-0.0886,-0.0953,-0.0985,-0.1069,-0.1073,-0.1106,-0.0996,-0.091,-0.0614,-0.0331,-0.0102,0.0211,0.0355,0.0355,0.0368,0.036,0.0349,0.0339,0.033,0.0447,0.0448,0.0448,0.0449,0,0,-0.071,-0.0748,-0.0776,-0.0906,-0.0982,-0.1071,-0.1122,-0.1111,-0.1039,-0.0914,-0.0756,-0.0536,-0.0282,-0.0034,0.0163,0.0324,0.0289,0.0334,0.0204,0.0162,0.015,0.0263,0.0236,0,0,0,0,0]}],[{"header":{"parameterUnit":"m.s-1","parameterCategory":2,"la1":30.2991,"la2":30.254,"lo1":-89.0895,"lo2":-89.0444,"dy":0.0017,"dx":0.0017,"nx":28,"ny":28,"refTime":"2024-03-09T09:00:00:Z","depth":"4","parameterNumber":2,"parameterNumberName":"U-component_of_CURRENTS"},"data":[0,0,0,0,0,0,0,0,0,0,0,0,0,0,0,0,0,0,0,0,0,0,0,0,0,0,0,0,0,0,0,0,0,0,0,0,0,0,0,0,0,0,0,0,0,0,0,0,0,0,0,0,0,0,0,0,0,0,-0.1047,-0.1047,0,-0.0984,-0.0983,-0.0982,-0.0937,-0.0938,-0.0939,-0.0939,-0.1065,-0.1068,-0.1071,0,0,0,0,0,0,0,0,0,0,0,0,0,-0.1004,-0.1005,-0.1047,-0.1047,-0.1047,-0.0985,-0.0983,-0.0981,-0.0937,-0.0938,-0.0939,-0.0939,-0.1064,-0.1067,-0.1071,0,0,0,0,0,0,0,0,0,0,0,0,0,-0.0981,-0.1005,-0.1047,-0.1025,-0.1023,-0.0985,-0.0983,-0.0981,-0.0937,-0.0938,-0.0939,-0.094,-0.1063,-0.1067,-0.1071,-0.1082,0,0,-0.1084,-0.1086,0,0,0,0,0,0,0,0,-0.0983,-0.0982,-0.1028,-0.1026,-0.1024,-0.0978,-0.1014,-0.1027,-0.0937,-0.096,-0.0939,-0.094,-0.1059,-0.1064,-0.1034,-0.1088,-0.1093,-0.1085,-0.1087,-0.1089,-0.109,0,0,0,0,0,0,0,-0.0985,-0.0984,-0.1012,-0.1028,-0.1026,-0.0976,-0.0974,-0.1014,-0.1002,-0.0958,-0.0957,-0.0965,-0.1058,-0.1029,-0.1037,-0.1095,-0.1085,-0.1088,-0.1091,-0.1093,-0.1282,-0.1284,0,0,0,0,0,0,-0.1017,-0.0986,-0.1015,-0.1012,-0.1016,-0.0977,-0.0974,-0.0984,-0.0997,-0.1001,-0.0964,-0.0963,-0.1022,-0.1032,-0.1042,-0.1154,-0.1089,-0.1093,-0.1096,-0.1279,-0.1282,-0.1285,0,0,0,0,0,0,-0.1017,-0.102,-0.1017,-0.1004,-0.1002,-0.0979,-0.0989,-0.0983,-0.0984,-0.1002,-0.1007,-0.0978,-0.1023,-0.1036,-0.1112,-0.1156,-0.1095,-0.1099,-0.1276,-0.128,-0.1284,-0.1317,0,0,0,0,0,0,-0.1015,-0.102,-0.1033,-0.1007,-0.1004,-0.1024,-0.0989,-0.0981,-0.0991,-0.0989,-0.1016,-0.1025,-0.1024,-0.1105,-0.1116,-0.116,-0.1102,-0.1273,-0.1278,-0.1282,-0.1313,-0.1321,-0.1328,0,0,0,0,0,-0.1014,-0.1025,-0.1034,-0.1038,-0.1025,-0.1027,-0.102,-0.0998,-0.0992,-0.1,-0.1024,-0.1026,-0.1142,-0.1111,-0.1123,-0.1169,-0.1271,-0.1277,-0.1282,-0.1309,-0.132,-0.1328,0,0,0,0,0,0,-0.1013,-0.1022,-0.1031,-0.1046,-0.1057,-0.1024,-0.1025,-0.1019,-0.1034,-0.1044,-0.1054,-0.1066,-0.1141,-0.1162,-0.1126,-0.124,-0.1209,-0.1217,-0.1226,-0.1236,-0.1244,-0.1248,-0.1106,0,0,0,0,0,-0.1024,-0.1031,-0.1046,-0.1058,-0.1072,-0.1057,-0.1055,-0.105,-0.1062,-0.1066,-0.1093,-0.1131,-0.1165,-0.1207,-0.1235,-0.1309,-0.1301,-0.135,-0.1358,-0.1364,-0.1379,-0.1384,-0.1392,-0.1303,-0.1303,-0.1303,0,0,-0.1029,-0.1034,-0.104,-0.1059,-0.1059,-0.1068,-0.1055,-0.107,-0.1087,-0.1086,-0.1132,-0.1157,-0.1188,-0.1251,-0.1291,-0.1283,-0.1389,-0.1371,-0.1376,-0.1388,-0.139,-0.1398,-0.1405,-0.1307,-0.1306,-0.1305,0,0,-0.1033,-0.1053,-0.1063,-0.1072,-0.1096,-0.109,-0.111,-0.1118,-0.1137,-0.1191,-0.1187,-0.1242,-0.1311,-0.1328,-0.1347,-0.1427,-0.1417,-0.1454,-0.1514,-0.1518,-0.1525,-0.153,-0.1532,-0.1537,-0.1473,-0.1473,-0.1473,0,-0.1043,-0.1045,-0.1068,-0.1078,-0.1077,-0.111,-0.1116,-0.1144,-0.1178,-0.1215,-0.1226,-0.1316,-0.1339,-0.1406,-0.1432,-0.1442,-0.1446,-0.1467,-0.1525,-0.153,-0.1535,-0.1535,-0.1541,-0.1475,-0.1475,-0.1475,-0.1474,0,-0.1044,-0.1052,-0.106,-0.1079,-0.1093,-0.1101,-0.1151,-0.1206,-0.1244,-0.1269,-0.1366,-0.1399,-0.1451,-0.1478,-0.1482,-0.1548,-0.1539,-0.1515,-0.149,-0.1546,-0.1543,-0.1548,-0.1478,-0.1478,-0.1477,-0.1476,0,0,-0.104,-0.1055,-0.1057,-0.1066,-0.1085,-0.1104,-0.1167,-0.1227,-0.1285,-0.1361,-0.1422,-0.1501,-0.153,-0.1556,-0.1578,-0.1611,-0.1642,-0.1598,-0.1597,-0.1581,-0.166,-0.1537,-0.1531,-0.163,-0.1631,-0.1632,-0.1642,0,-0.1028,-0.1025,-0.104,-0.1055,-0.1055,-0.1112,-0.1169,-0.1243,-0.1311,-0.1393,-0.1474,-0.1538,-0.1557,-0.1595,-0.1629,-0.1631,-0.1659,-0.1642,-0.1626,-0.1626,-0.1493,-0.1533,-0.1636,-0.1646,-0.1647,-0.1648,-0.1648,0,-0.1014,-0.1005,-0.0991,-0.1042,-0.1058,-0.1097,-0.1193,-0.1242,-0.137,-0.143,-0.1519,-0.1572,-0.1651,-0.1646,-0.1699,-0.1692,-0.1687,-0.1694,-0.1693,-0.1571,-0.1512,-0.1582,-0.1657,-0.1656,-0.1655,-0.1655,-0.1654,0,-0.0971,-0.0987,-0.0963,-0.0966,-0.1024,-0.1086,-0.1151,-0.1266,-0.1332,-0.1452,-0.1509,-0.1603,-0.165,-0.1679,-0.1707,-0.1705,-0.1746,-0.1721,-0.1614,-0.1605,-0.1696,-0.1689,-0.1751,-0.1751,-0.1751,-0.1751,-0.1751,0,-0.0927,-0.0933,-0.0958,-0.0957,-0.1004,-0.1062,-0.1147,-0.1248,-0.1361,-0.142,-0.1521,-0.1577,-0.1664,-0.1705,-0.1715,-0.1677,-0.1741,-0.1631,-0.1601,-0.1712,-0.1707,-0.1698,-0.1692,-0.1751,-0.1751,-0.1751,-0.1751,0,-0.0888,-0.0883,-0.0887,-0.0949,-0.0982,-0.1026,-0.1163,-0.1236,-0.1334,-0.141,-0.1453,-0.1572,-0.161,-0.1682,-0.1715,-0.1662,-0.165,-0.1621,-0.1747,-0.1722,-0.1508,-0.1504,-0.1491,-0.1487,-0.1483,-0.148,-0.1478,0,-0.0849,-0.0836,-0.0882,-0.0889,-0.093,-0.1,-0.1071,-0.1215,-0.1262,-0.1387,-0.141,-0.151,-0.1568,-0.1526,-0.1591,-0.1595,-0.1581,-0.1553,-0.1532,-0.1511,-0.1482,-0.1484,-0.1485,-0.1472,-0.1471,-0.147,-0.1469,0,-0.0787,-0.0815,-0.0825,-0.0842,-0.0907,-0.0947,-0.1048,-0.108,-0.1202,-0.1317,-0.1342,-0.1379,-0.1414,-0.1445,-0.1465,-0.1465,-0.1556,-0.1515,-0.1522,-0.1502,-0.1487,-0.1463,-0.1468,-0.1457,-0.1459,-0.146,-0.1461,0,-0.0755,-0.0752,-0.0766,-0.079,-0.0846,-0.0863,-0.0933,-0.0988,-0.1058,-0.12,-0.1197,-0.1295,-0.1391,-0.1376,-0.1388,-0.1385,-0.1362,-0.1303,-0.1321,-0.1336,-0.128,-0.1238,-0.1108,0,0,0,0,0,-0.0713,-0.0706,-0.0711,-0.0724,-0.078,-0.0809,-0.0893,-0.095,-0.1072,-0.1065,-0.1128,-0.116,-0.1189,-0.1235,-0.1202,-0.1308,-0.1361,-0.1259,-0.13,-0.1388,-0.1402,-0.1351,0,0,0,0,0,0,-0.0679,-0.0683,-0.0681,-0.0655,-0.0656,-0.0708,-0.0758,-0.084,-0.0824,-0.0949,-0.0978,-0.1071,-0.1125,-0.1204,-0.1178,-0.1191,-0.1184,-0.1327,-0.1322,-0.138,-0.1393,-0.1404,-0.1357,0,0,0,0,0]},{"header":{"parameterUnit":"m.s-1","parameterCategory":2,"la1":30.2991,"la2":30.254,"lo1":-89.0895,"lo2":-89.0444,"dy":0.0017,"dx":0.0017,"nx":28,"ny":28,"refTime":"2024-03-09T09:00:00:Z","depth":"4","parameterNumber":3,"parameterNumberName":"V-component_of_CURRENTS"},"data":[0,0,0,0,0,0,0,0,0,0,0,0,0,0,0,0,0,0,0,0,0,0,0,0,0,0,0,0,0,0,0,0,0,0,0,0,0,0,0,0,0,0,0,0,0,0,0,0,0,0,0,0,0,0,0,0,0,0,0.0285,0.0286,0,0.0349,0.0349,0.035,0.0397,0.0397,0.0398,0.0398,0.0419,0.0419,0.0419,0,0,0,0,0,0,0,0,0,0,0,0,0,0.0243,0.0243,0.0285,0.0286,0.0287,0.0349,0.0349,0.035,0.0397,0.0397,0.0398,0.0399,0.0419,0.0419,0.0419,0,0,0,0,0,0,0,0,0,0,0,0,0,0.0278,0.0243,0.0285,0.0319,0.0323,0.0349,0.035,0.035,0.0396,0.0397,0.0398,0.0399,0.0419,0.0419,0.0419,0.0401,0,0,0.0419,0.0419,0,0,0,0,0,0,0,0,0.0275,0.0279,0.0313,0.0317,0.0321,0.0368,0.0342,0.0366,0.0396,0.0367,0.0398,0.0399,0.0398,0.04,0.0408,0.0402,0.0403,0.0419,0.0419,0.0419,0.0419,0,0,0,0,0,0,0,0.0273,0.0277,0.0308,0.0314,0.0319,0.0345,0.035,0.0347,0.0374,0.0369,0.0373,0.0383,0.04,0.0408,0.0409,0.0404,0.0419,0.0419,0.0419,0.0419,0.0391,0.0391,0,0,0,0,0,0,0.0266,0.0274,0.0307,0.0311,0.0302,0.0345,0.0351,0.035,0.0376,0.0381,0.0382,0.0385,0.0407,0.0409,0.0409,0.0384,0.0419,0.0419,0.0419,0.0392,0.0391,0.039,0,0,0,0,0,0,0.0265,0.0268,0.0304,0.0296,0.0303,0.0345,0.0344,0.0351,0.0366,0.0386,0.0391,0.0391,0.0408,0.0409,0.0399,0.0385,0.0419,0.0419,0.0393,0.0392,0.0391,0.0336,0,0,0,0,0,0,0.0263,0.0266,0.0272,0.0295,0.0303,0.0313,0.0343,0.0352,0.0372,0.0376,0.0395,0.0398,0.0409,0.0399,0.0399,0.0386,0.0419,0.0394,0.0392,0.0391,0.0339,0.0333,0.0328,0,0,0,0,0,0.0261,0.0263,0.0271,0.0276,0.0305,0.0312,0.0318,0.035,0.0371,0.0369,0.0379,0.0398,0.0391,0.0398,0.0398,0.0385,0.0395,0.0393,0.0391,0.0341,0.0334,0.0329,0,0,0,0,0,0,0.0246,0.0269,0.0278,0.0286,0.0295,0.0321,0.0326,0.0349,0.0357,0.0361,0.0382,0.0384,0.0372,0.0384,0.0391,0.0374,0.0398,0.0396,0.036,0.0354,0.0348,0.0334,0.0419,0,0,0,0,0,0.0244,0.0255,0.0268,0.0276,0.0272,0.0298,0.0309,0.0328,0.0338,0.0345,0.0355,0.0364,0.0364,0.0364,0.0365,0.035,0.0368,0.0344,0.0338,0.0334,0.0323,0.0342,0.0338,0.0385,0.0385,0.0385,0,0,0.0241,0.0257,0.0263,0.0275,0.028,0.0271,0.0305,0.0313,0.0308,0.0342,0.0331,0.0344,0.0356,0.034,0.0337,0.0349,0.033,0.0332,0.0328,0.0319,0.034,0.0335,0.0331,0.0384,0.0384,0.0384,0,0,0.0233,0.0245,0.0243,0.0243,0.0254,0.0261,0.026,0.0274,0.0278,0.027,0.0293,0.0296,0.0295,0.03,0.0304,0.027,0.0302,0.0275,0.0235,0.0254,0.025,0.0247,0.0263,0.0262,0.0272,0.0272,0.0272,0,0.0227,0.0234,0.0243,0.0233,0.0239,0.025,0.0241,0.0233,0.0246,0.0237,0.0257,0.0259,0.0275,0.0257,0.0248,0.0258,0.0273,0.0257,0.0247,0.0244,0.0242,0.0259,0.0259,0.0269,0.0269,0.027,0.027,0,0.0211,0.0218,0.021,0.0202,0.02,0.0197,0.0184,0.0166,0.0175,0.0178,0.0163,0.0185,0.0188,0.0196,0.0211,0.0198,0.0216,0.0239,0.0262,0.0234,0.0254,0.0254,0.0265,0.0266,0.0267,0.0267,0,0,0.0196,0.0201,0.0199,0.0196,0.0192,0.0183,0.0145,0.0121,0.0091,0.0098,0.0077,0.0085,0.0102,0.0107,0.0132,0.0147,0.0151,0.0181,0.0183,0.0195,0.0189,0.0193,0.0195,0.0175,0.0174,0.0174,0.0209,0,0.0184,0.0185,0.0182,0.0163,0.0163,0.0141,0.0096,0.007,0.006,0.0027,0.0041,0.003,0.0065,0.007,0.0088,0.0136,0.015,0.0139,0.0216,0.0218,0.0224,0.0194,0.0173,0.0209,0.0209,0.021,0.021,0,0.0166,0.0184,0.0188,0.0155,0.0141,0.0109,0.0054,0.0016,-0.004,-0.0048,-0.0055,-0.0042,-0.0033,0.0011,0.0067,0.006,0.0113,0.0155,0.0158,0.0179,0.0222,0.0244,0.0211,0.0211,0.0211,0.0211,0.021,0,0.0175,0.0169,0.0188,0.0185,0.0149,0.0109,0.0056,-0.0006,-0.0056,-0.0093,-0.0114,-0.01,-0.0092,-0.0029,0.0052,0.0061,0.0124,0.0154,0.0204,0.0205,0.0218,0.0221,0.0192,0.0192,0.0191,0.0191,0.0191,0,0.0169,0.017,0.0189,0.0185,0.0149,0.0111,0.0025,-0.0027,-0.0102,-0.0164,-0.0151,-0.017,-0.0101,-0.0058,0.0027,0.011,0.0107,0.0184,0.0209,0.0194,0.0194,0.0218,0.0221,0.0193,0.0192,0.0192,0.0192,0,0.0164,0.019,0.0191,0.0168,0.0153,0.0114,-0.0017,-0.0092,-0.0143,-0.0214,-0.0228,-0.0229,-0.0176,-0.0099,0.0004,0.0072,0.0161,0.0194,0.0159,0.0184,0.0236,0.0235,0.0246,0.0246,0.0247,0.0247,0.0247,0,0.0175,0.019,0.0179,0.0171,0.0152,0.0083,0.0004,-0.01,-0.0168,-0.0244,-0.0271,-0.0256,-0.024,-0.0104,-0.0007,0.0132,0.0162,0.0208,0.0225,0.0215,0.0239,0.0238,0.0237,0.0247,0.0248,0.0248,0.0248,0,0.0195,0.0187,0.0183,0.0165,0.0108,0.0029,-0.0079,-0.0136,-0.0251,-0.0287,-0.0316,-0.0269,-0.0217,-0.0111,-0.0013,0.0098,0.0178,0.0211,0.0212,0.0229,0.0217,0.024,0.0239,0.0249,0.0248,0.0248,0.0248,0,0.0204,0.0204,0.0196,0.0163,0.0095,0.0001,-0.0075,-0.0167,-0.0246,-0.0326,-0.0327,-0.0282,-0.0263,-0.0128,-0.0026,0.0066,0.01,0.0149,0.0154,0.0154,0.0122,0.0094,0.0096,0,0,0,0,0,0.022,0.0218,0.0194,0.015,0.0058,0.001,-0.0108,-0.0183,-0.0281,-0.0307,-0.0326,-0.0278,-0.0167,-0.0116,-0.0024,0.0002,0.0132,0.0116,0.0196,0.0254,0.0253,0.0231,0,0,0,0,0,0,0.0237,0.023,0.0214,0.0141,0.0088,-0.0023,-0.0113,-0.0186,-0.0205,-0.0272,-0.0215,-0.0223,-0.011,-0.0209,-0.0007,0.0017,0.0086,0.0158,0.0161,0.0254,0.0253,0.0253,0.023,0,0,0,0,0]}]]